THY7LT LTFM-LTFH

Flight info

Callsign THY7LT
Flight time 0h 54m
Altitude 33000
Route EKAWE1E/36 EKAWE DCT ABSAX UN743 GAKSU DCT SIN W86 BAFRA
Aircraft A320/M-SDE3FGHIRWY/LB1

Departure

Time 2026-04-30 20:05
Airport İstanbul Airport (LTFM)

Arrival

Time 2026-04-30 21:00
Airport Samsun-Çarşamba Airport (LTFH)
Time Latitude Longitude Altitude Speed Heading
2026-04-30 19:42 41.25976 28.74953 334 ft 0 kts 251°
2026-04-30 19:57 41.25976 28.74955 329 ft 2 kts 251°
2026-04-30 19:57 41.25984 28.74987 330 ft 4 kts 253°
2026-04-30 19:58 41.25991 28.75022 332 ft 4 kts 258°
2026-04-30 19:58 41.25995 28.75057 330 ft 4 kts 274°
2026-04-30 19:58 41.25988 28.75085 333 ft 3 kts 336°
2026-04-30 19:58 41.25986 28.75087 333 ft 0 kts 341°
2026-04-30 20:00 41.25985 28.75087 333 ft 0 kts 341°
2026-04-30 20:01 41.25989 28.75086 333 ft 1 kts 341°
2026-04-30 20:01 41.25997 28.75082 331 ft 0 kts 341°
2026-04-30 20:02 41.26033 28.75065 333 ft 7 kts 341°
2026-04-30 20:02 41.26089 28.75039 331 ft 10 kts 341°
2026-04-30 20:03 41.26238 28.75031 334 ft 12 kts 62°
2026-04-30 20:03 41.26244 28.75154 334 ft 14 kts 89°
2026-04-30 20:03 41.26246 28.75297 334 ft 16 kts 89°
2026-04-30 20:03 41.26248 28.75455 334 ft 17 kts 89°
2026-04-30 20:04 41.26250 28.75606 334 ft 14 kts 89°
2026-04-30 20:04 41.26272 28.75669 334 ft 8 kts
2026-04-30 20:04 41.26336 28.75667 333 ft 12 kts 359°
2026-04-30 20:05 41.27281 28.75651 333 ft 124 kts 359°
2026-04-30 20:05 41.28272 28.75634 512 ft 151 kts
2026-04-30 20:05 41.30289 28.76117 1724 ft 153 kts 41°
2026-04-30 20:06 41.31052 28.77076 2376 ft 151 kts 39°
2026-04-30 20:06 41.31927 28.77838 2986 ft 150 kts 30°
2026-04-30 20:06 41.32861 28.78528 3433 ft 164 kts 30°
2026-04-30 20:06 41.33918 28.79302 3692 ft 187 kts 30°
2026-04-30 20:07 41.35160 28.80214 3950 ft 215 kts 30°
2026-04-30 20:07 41.36491 28.81336 4381 ft 238 kts 44°
2026-04-30 20:07 41.38517 28.85041 5830 ft 260 kts 54°
2026-04-30 20:08 41.39572 28.87082 6486 ft 274 kts 55°
2026-04-30 20:08 41.40681 28.89230 7094 ft 288 kts 55°
2026-04-30 20:08 41.41838 28.91469 7830 ft 295 kts 55°
2026-04-30 20:08 41.43011 28.93742 8600 ft 302 kts 55°
2026-04-30 20:09 41.44215 28.96074 9332 ft 309 kts 55°
2026-04-30 20:09 41.45451 28.98465 10035 ft 318 kts 55°
2026-04-30 20:09 41.48139 29.03668 10538 ft 363 kts 55°
2026-04-30 20:10 41.51064 29.09364 11711 ft 378 kts 56°
2026-04-30 20:10 41.52558 29.12275 12379 ft 382 kts 56°
2026-04-30 20:10 41.54053 29.15190 13020 ft 386 kts 56°
2026-04-30 20:11 41.57126 29.21187 14320 ft 395 kts 56°
2026-04-30 20:11 41.58685 29.24232 14910 ft 399 kts 56°
2026-04-30 20:11 41.60236 29.27264 15487 ft 402 kts 55°
2026-04-30 20:12 41.63429 29.33513 16657 ft 410 kts 55°
2026-04-30 20:12 41.65040 29.36676 17220 ft 413 kts 55°
2026-04-30 20:12 41.66664 29.39868 17799 ft 417 kts 55°
2026-04-30 20:13 41.68305 29.43085 18377 ft 420 kts 54°
2026-04-30 20:13 41.69958 29.46328 18887 ft 424 kts 54°
2026-04-30 20:13 41.71625 29.49608 19403 ft 428 kts 54°
2026-04-30 20:13 41.73304 29.52916 19918 ft 432 kts 54°
2026-04-30 20:14 41.74998 29.56259 20416 ft 435 kts 54°
2026-04-30 20:14 41.76705 29.59632 20905 ft 439 kts 54°
2026-04-30 20:14 41.78425 29.63032 21370 ft 443 kts 54°
2026-04-30 20:14 41.80157 29.66461 21840 ft 446 kts 54°
2026-04-30 20:15 41.81900 29.69923 22288 ft 450 kts 54°
2026-04-30 20:15 41.83656 29.73413 22737 ft 453 kts 53°
2026-04-30 20:15 41.85426 29.76931 23194 ft 457 kts 53°
2026-04-30 20:15 41.87208 29.80478 23648 ft 460 kts 53°
2026-04-30 20:16 41.89001 29.84051 24034 ft 463 kts 53°
2026-04-30 20:16 41.90806 29.87651 24418 ft 466 kts 53°
2026-04-30 20:16 41.92624 29.91276 24796 ft 469 kts 53°
2026-04-30 20:16 41.94451 29.94925 25175 ft 472 kts 53°
2026-04-30 20:17 41.96260 29.98548 25539 ft 475 kts 53°
2026-04-30 20:17 41.98100 30.02241 25912 ft 477 kts 53°
2026-04-30 20:17 41.99953 30.05964 26275 ft 480 kts 53°
2026-04-30 20:17 42.01696 30.09806 26618 ft 485 kts 60°
2026-04-30 20:18 42.03039 30.13990 26970 ft 490 kts 70°
2026-04-30 20:18 42.03929 30.18426 27307 ft 493 kts 79°
2026-04-30 20:18 42.04537 30.22983 27660 ft 496 kts 80°
2026-04-30 20:18 42.05146 30.27568 28014 ft 499 kts 80°
2026-04-30 20:19 42.05757 30.32171 28375 ft 502 kts 80°
2026-04-30 20:19 42.06370 30.36808 28717 ft 505 kts 80°
2026-04-30 20:19 42.06987 30.41476 29056 ft 508 kts 80°
2026-04-30 20:19 42.07603 30.46159 29391 ft 510 kts 80°
2026-04-30 20:20 42.08219 30.50875 29722 ft 513 kts 80°
2026-04-30 20:20 42.08839 30.55623 30093 ft 515 kts 80°
2026-04-30 20:20 42.09458 30.60373 30519 ft 514 kts 80°
2026-04-30 20:20 42.10073 30.65109 30943 ft 513 kts 80°
2026-04-30 20:21 42.10684 30.69840 31383 ft 512 kts 80°
2026-04-30 20:21 42.11292 30.74566 31812 ft 512 kts 81°
2026-04-30 20:21 42.11895 30.79276 32247 ft 511 kts 81°
2026-04-30 20:21 42.12497 30.83991 32689 ft 510 kts 81°
2026-04-30 20:22 42.13097 30.88692 33017 ft 510 kts 81°
2026-04-30 20:22 42.14294 30.98115 33091 ft 510 kts 81°
2026-04-30 20:23 42.15481 31.07537 33085 ft 510 kts 81°
2026-04-30 20:23 42.16655 31.16957 33082 ft 509 kts 81°
2026-04-30 20:24 42.17821 31.26372 33084 ft 509 kts 81°
2026-04-30 20:24 42.18987 31.35790 33081 ft 509 kts 81°
2026-04-30 20:25 42.20722 31.49909 33078 ft 509 kts 81°
2026-04-30 20:26 42.22417 31.63973 33074 ft 508 kts 81°
2026-04-30 20:26 42.24105 31.78092 33071 ft 508 kts 81°
2026-04-30 20:27 42.26206 31.96951 33070 ft 507 kts 90°
2026-04-30 20:28 42.25097 32.06221 33059 ft 502 kts 107°
2026-04-30 20:28 42.23410 32.15485 33055 ft 512 kts 107°
2026-04-30 20:30 42.19106 32.38788 33048 ft 511 kts 107°
2026-04-30 20:31 42.13914 32.66654 33043 ft 510 kts 107°
2026-04-30 20:32 42.09537 32.89797 33043 ft 509 kts 107°
2026-04-30 20:33 42.06905 33.03588 33041 ft 509 kts 108°
2026-04-30 20:34 42.04251 33.17393 33040 ft 508 kts 108°
2026-04-30 20:35 42.01597 33.31196 33038 ft 508 kts 108°
2026-04-30 20:35 41.98907 33.44962 33033 ft 507 kts 108°
2026-04-30 20:36 41.97110 33.54123 33026 ft 507 kts 108°
2026-04-30 20:37 41.94401 33.67859 33030 ft 506 kts 108°
2026-04-30 20:37 41.92583 33.77002 33031 ft 507 kts 108°
2026-04-30 20:38 41.90761 33.86138 33029 ft 506 kts 108°
2026-04-30 20:38 41.88940 33.95267 33027 ft 506 kts 108°
2026-04-30 20:39 41.86197 34.08935 33022 ft 506 kts 108°
2026-04-30 20:40 41.83432 34.22582 33021 ft 505 kts 108°
2026-04-30 20:40 41.81892 34.30125 33025 ft 505 kts 108°
2026-04-30 20:41 41.80044 34.39167 32407 ft 498 kts 108°
2026-04-30 20:41 41.78831 34.45091 32055 ft 496 kts 108°
2026-04-30 20:41 41.77919 34.49531 31619 ft 495 kts 108°
2026-04-30 20:41 41.77302 34.52529 31192 ft 493 kts 108°
2026-04-30 20:42 41.76388 34.56955 30635 ft 490 kts 108°
2026-04-30 20:42 41.75487 34.61311 30291 ft 481 kts 108°
2026-04-30 20:42 41.73730 34.69783 29264 ft 471 kts 108°
2026-04-30 20:43 41.72843 34.74050 28718 ft 466 kts 108°
2026-04-30 20:43 41.71988 34.78157 28195 ft 462 kts 108°
2026-04-30 20:43 41.71127 34.82277 27675 ft 457 kts 108°
2026-04-30 20:44 41.69369 34.90622 25872 ft 466 kts 108°
2026-04-30 20:44 41.68497 34.94750 25145 ft 466 kts 108°
2026-04-30 20:44 41.66758 35.03017 24067 ft 457 kts 108°
2026-04-30 20:45 41.65044 35.11131 22986 ft 448 kts 108°
2026-04-30 20:45 41.64199 35.15123 22470 ft 445 kts 108°
2026-04-30 20:45 41.63356 35.19087 21963 ft 441 kts 108°
2026-04-30 20:46 41.60867 35.30743 20362 ft 430 kts 109°
2026-04-30 20:46 41.60048 35.34566 19826 ft 426 kts 109°
2026-04-30 20:47 41.58430 35.42095 18711 ft 422 kts 109°
2026-04-30 20:47 41.57619 35.45844 18191 ft 418 kts 109°
2026-04-30 20:48 41.56023 35.53228 17091 ft 408 kts 109°
2026-04-30 20:48 41.55236 35.56871 16451 ft 407 kts 109°
2026-04-30 20:48 41.54455 35.60463 15914 ft 402 kts 109°
2026-04-30 20:48 41.53679 35.64034 15400 ft 397 kts 109°
2026-04-30 20:49 41.52916 35.67548 14790 ft 395 kts 109°
2026-04-30 20:49 41.52155 35.71055 14335 ft 388 kts 108°
2026-04-30 20:49 41.51400 35.74518 13661 ft 389 kts 108°
2026-04-30 20:50 41.49906 35.81332 12681 ft 376 kts 109°
2026-04-30 20:50 41.49191 35.84589 12543 ft 353 kts 109°
2026-04-30 20:50 41.48532 35.87615 12414 ft 328 kts 109°
2026-04-30 20:50 41.47908 35.90471 12049 ft 316 kts 109°
2026-04-30 20:51 41.47295 35.93243 11570 ft 309 kts 109°
2026-04-30 20:51 41.46100 35.98626 10634 ft 297 kts 109°
2026-04-30 20:51 41.45520 36.01256 10182 ft 296 kts 109°
2026-04-30 20:52 41.44937 36.03886 9733 ft 300 kts 109°
2026-04-30 20:52 41.44355 36.06507 9354 ft 291 kts 109°
2026-04-30 20:52 41.43227 36.11585 8383 ft 282 kts 109°
2026-04-30 20:53 41.42675 36.14076 7889 ft 279 kts 109°
2026-04-30 20:53 41.42130 36.16538 7411 ft 274 kts 109°
2026-04-30 20:53 41.41593 36.18957 6935 ft 271 kts 108°
2026-04-30 20:54 41.40537 36.23707 5994 ft 263 kts 108°
2026-04-30 20:54 41.40024 36.26008 5530 ft 258 kts 107°
2026-04-30 20:54 41.39515 36.28285 5085 ft 253 kts 107°
2026-04-30 20:55 41.38574 36.32461 4789 ft 220 kts 107°
2026-04-30 20:55 41.38138 36.34389 4373 ft 216 kts 107°
2026-04-30 20:55 41.37705 36.36301 3940 ft 215 kts 107°
2026-04-30 20:56 41.36917 36.39798 3538 ft 192 kts 106°
2026-04-30 20:56 41.36313 36.41467 3045 ft 195 kts 127°
2026-04-30 20:56 41.34415 36.44157 2408 ft 202 kts 133°
2026-04-30 20:57 41.33469 36.45484 2135 ft 190 kts 133°
2026-04-30 20:57 41.32597 36.46705 1877 ft 175 kts 133°
2026-04-30 20:57 41.31795 36.47829 1663 ft 158 kts 133°
2026-04-30 20:58 41.30401 36.49782 1238 ft 140 kts 133°
2026-04-30 20:58 41.29735 36.50715 1041 ft 139 kts 133°
2026-04-30 20:58 41.29070 36.51644 842 ft 139 kts 133°
2026-04-30 20:58 41.28406 36.52574 647 ft 139 kts 133°
2026-04-30 20:59 41.27077 36.54435 263 ft 138 kts 133°
2026-04-30 20:59 41.26415 36.55362 69 ft 138 kts 133°
2026-04-30 21:00 41.25514 36.56619 24 ft 30 kts 133°
2026-04-30 21:00 41.25419 36.56752 23 ft 3 kts 264°
2026-04-30 21:01 41.25493 36.56648 24 ft 13 kts 314°
2026-04-30 21:01 41.25570 36.56541 25 ft 19 kts 313°
2026-04-30 21:01 41.25791 36.56233 25 ft 24 kts 313°
2026-04-30 21:02 41.25903 36.56076 23 ft 24 kts 314°
2026-04-30 21:02 41.25991 36.55954 27 ft 11 kts 313°
2026-04-30 21:02 41.26023 36.55884 23 ft 6 kts 274°
2026-04-30 21:02 41.26005 36.55828 24 ft 8 kts 227°
2026-04-30 21:03 41.25962 36.55773 25 ft 9 kts 224°
2026-04-30 21:03 41.25914 36.55712 26 ft 10 kts 224°
2026-04-30 21:03 41.25871 36.55657 25 ft 8 kts 224°
2026-04-30 21:03 41.25833 36.55609 25 ft 5 kts 223°
2026-04-30 21:04 41.25819 36.55591 27 ft 1 kts 224°
2026-04-30 21:04 41.25816 36.55587 25 ft 0 kts 224°